Location: Unspecified
(0.0000°N, 0.0000°E)
Time: 02:08:28
(UTC+00:00)

Explorer 11/Cluster Stage 4 - Pass Details

Date: 24 April 2026
Orbit: 463 x 1174 km, 28.8° (Epoch: 15 May)

Event Time Altitude Azimuth Distance (km) Brightness Sun altitude
Exits shadow 04:41:44 27° 319° (NW) 984 6.8 -18.6°
Maximum altitude 04:42:12 27° 332° (NNW) 972 6.9 -18.5°
Drops below altitude 10° 04:45:43 10° 32° (NNE) 1,804 9.1 -17.7°
Sets 04:48:24 0° 44° (NE) 2,807 10.4 -17.0°
